• In Germany
  • List of Countries
  • For 7 days
  • Water Temperature
  • Satellite Maps
  • Weather Map
  • Weather Widgets
  • user-avatar
    Login

    Hourly Weather Pinsk

    Today, 23 June, Friday

    Time Temperature Precipitation Wind Pressure Humidity
    00:00 +15°C° 0 mm 1 mps 745 mmHg 72%
    01:00 +15°C° 0 mm 1 mps 745 mmHg 72%
    02:00 +15°C° 0 mm 1 mps 744 mmHg 81%
    03:00 +15°C° 0 mm 1 mps 744 mmHg 82%
    04:00 +15°C° 0 mm 1 mps 744 mmHg 83%
    05:00 +14°C° 0 mm 0 mps 743 mmHg 84%
    06:00 +16°C° 0 mm 1 mps 743 mmHg 77%
    07:00 +19°C° 0 mm 1 mps 743 mmHg 70%
    08:00 +21°C° 0 mm 1 mps 742 mmHg 63%
    09:00 +21°C° 0.4 mm 1 mps 742 mmHg 68%
    10:00 +21°C° 0.4 mm 1 mps 742 mmHg 74%
    11:00 +21°C° 0.4 mm 1 mps 742 mmHg 79%
    12:00 +20°C° 1.5 mm 1 mps 741 mmHg 83%
    13:00 +20°C° 1.5 mm 1 mps 741 mmHg 88%
    14:00 +19°C° 1.5 mm 1 mps 741 mmHg 92%
    15:00 +19°C° 0.8 mm 1 mps 741 mmHg 92%
    16:00 +19°C° 0.8 mm 1 mps 741 mmHg 92%
    17:00 +19°C° 0.8 mm 1 mps 741 mmHg 92%
    18:00 +19°C° 0.1 mm 1 mps 741 mmHg 93%
    19:00 +19°C° 0.1 mm 1 mps 741 mmHg 94%
    20:00 +18°C° 0.1 mm 1 mps 742 mmHg 94%
    21:00 +17°C° 0 mm 2 mps 742 mmHg 95%
    22:00 +16°C° 0 mm 2 mps 742 mmHg 96%
    23:00 +15°C° 0 mm 2 mps 743 mmHg 97%

    Tomorrow, 24 June, Saturday

    Time Temperature Precipitation Wind Pressure Humidity
    00:00 +15°C° 0 mm 2 mps 743 mmHg 97%
    01:00 +15°C° 0 mm 2 mps 743 mmHg 97%
    02:00 +14°C° 0 mm 2 mps 743 mmHg 97%
    03:00 +15°C° 0.2 mm 2 mps 744 mmHg 98%
    04:00 +15°C° 0.2 mm 2 mps 744 mmHg 98%
    05:00 +15°C° 0.2 mm 2 mps 744 mmHg 98%
    06:00 +16°C° 1.5 mm 2 mps 744 mmHg 98%
    07:00 +16°C° 1.5 mm 2 mps 744 mmHg 98%
    08:00 +17°C° 1.5 mm 3 mps 744 mmHg 97%
    09:00 +17°C° 0.4 mm 3 mps 744 mmHg 97%
    10:00 +17°C° 0.4 mm 3 mps 744 mmHg 96%
    11:00 +17°C° 0.4 mm 4 mps 745 mmHg 95%
    12:00 +18°C° 0.1 mm 4 mps 745 mmHg 90%
    13:00 +18°C° 0.1 mm 4 mps 745 mmHg 86%
    14:00 +19°C° 0.1 mm 4 mps 745 mmHg 82%
    15:00 +19°C° 0 mm 4 mps 745 mmHg 77%
    16:00 +20°C° 0 mm 4 mps 745 mmHg 71%
    17:00 +21°C° 0 mm 4 mps 745 mmHg 66%
    18:00 +20°C° 0 mm 3 mps 745 mmHg 71%
    19:00 +19°C° 0 mm 2 mps 746 mmHg 76%
    20:00 +18°C° 0 mm 2 mps 746 mmHg 82%
    21:00 +17°C° 0 mm 2 mps 746 mmHg 86%
    22:00 +17°C° 0 mm 2 mps 746 mmHg 90%
    23:00 +16°C° 0 mm 2 mps 746 mmHg 94%

    Day after tomorrow, 25 June, Sunday

    Time Temperature Precipitation Wind Pressure Humidity
    00:00 +16°C° 0 mm 2 mps 746 mmHg 94%
    01:00 +16°C° 0 mm 2 mps 747 mmHg 93%
    02:00 +16°C° 0 mm 2 mps 747 mmHg 93%
    03:00 +16°C° 0 mm 2 mps 746 mmHg 94%
    04:00 +16°C° 0 mm 2 mps 746 mmHg 94%
    05:00 +16°C° 0 mm 2 mps 746 mmHg 95%
    06:00 +18°C° 0 mm 2 mps 746 mmHg 88%
    07:00 +19°C° 0 mm 3 mps 746 mmHg 81%
    08:00 +21°C° 0 mm 3 mps 746 mmHg 73%
    09:00 +22°C° 0.1 mm 3 mps 746 mmHg 67%
    10:00 +25°C° 0.1 mm 3 mps 746 mmHg 61%
    11:00 +26°C° 0.1 mm 3 mps 746 mmHg 55%
    12:00 +26°C° 0.2 mm 3 mps 746 mmHg 54%
    13:00 +27°C° 0.2 mm 4 mps 745 mmHg 52%
    14:00 +27°C° 0.2 mm 4 mps 745 mmHg 50%
    15:00 +27°C° 0.1 mm 3 mps 745 mmHg 51%
    16:00 +27°C° 0.1 mm 3 mps 744 mmHg 51%
    17:00 +28°C° 0.1 mm 2 mps 744 mmHg 52%
    18:00 +26°C° 0.1 mm 2 mps 744 mmHg 61%
    19:00 +24°C° 0.1 mm 1 mps 744 mmHg 70%
    20:00 +22°C° 0.1 mm 1 mps 743 mmHg 78%
    21:00 +22°C° 0 mm 1 mps 743 mmHg 78%
    22:00 +21°C° 0 mm 1 mps 743 mmHg 77%
    23:00 +20°C° 0 mm 2 mps 743 mmHg 77%

    26 June, Monday

    Time Temperature Precipitation Wind Pressure Humidity
    00:00 +19°C° 0.1 mm 2 mps 743 mmHg 80%
    01:00 +19°C° 0.1 mm 2 mps 743 mmHg 83%
    02:00 +18°C° 0.1 mm 3 mps 743 mmHg 86%
    03:00 +18°C° 0 mm 3 mps 743 mmHg 87%
    04:00 +17°C° 0 mm 3 mps 743 mmHg 89%
    05:00 +17°C° 0 mm 3 mps 743 mmHg 91%
    06:00 +18°C° 0 mm 3 mps 744 mmHg 84%
    07:00 +19°C° 0 mm 3 mps 744 mmHg 77%
    08:00 +20°C° 0 mm 4 mps 744 mmHg 70%
    09:00 +20°C° 0.1 mm 4 mps 744 mmHg 64%
    10:00 +21°C° 0.1 mm 5 mps 744 mmHg 58%
    11:00 +21°C° 0.1 mm 6 mps 744 mmHg 51%
    12:00 +22°C° 0 mm 6 mps 745 mmHg 46%
    13:00 +22°C° 0 mm 6 mps 745 mmHg 41%
    14:00 +23°C° 0 mm 7 mps 745 mmHg 37%
    15:00 +23°C° 0 mm 6 mps 745 mmHg 37%
    16:00 +22°C° 0 mm 6 mps 746 mmHg 38%
    17:00 +22°C° 0 mm 5 mps 746 mmHg 38%
    18:00 +21°C° 0 mm 4 mps 746 mmHg 46%
    19:00 +19°C° 0 mm 3 mps 747 mmHg 53%
    20:00 +18°C° 0 mm 3 mps 747 mmHg 61%
    21:00 +16°C° 0 mm 2 mps 748 mmHg 65%
    22:00 +15°C° 0 mm 2 mps 748 mmHg 69%
    23:00 +14°C° 0 mm 2 mps 748 mmHg 73%

    27 June, Tuesday

    Time Temperature Precipitation Wind Pressure Humidity
    00:00 +13°C° 0 mm 2 mps 749 mmHg 75%
    01:00 +13°C° 0 mm 2 mps 749 mmHg 77%
    02:00 +12°C° 0 mm 2 mps 749 mmHg 80%
    03:00 +12°C° 0 mm 2 mps 749 mmHg 81%
    04:00 +12°C° 0 mm 2 mps 750 mmHg 82%
    05:00 +12°C° 0 mm 2 mps 750 mmHg 83%
    06:00 +14°C° 0 mm 2 mps 750 mmHg 75%
    07:00 +17°C° 0 mm 2 mps 750 mmHg 67%
    08:00 +19°C° 0 mm 2 mps 750 mmHg 59%
    09:00 +21°C° 0 mm 2 mps 750 mmHg 53%
    10:00 +22°C° 0 mm 3 mps 750 mmHg 47%
    11:00 +25°C° 0 mm 3 mps 750 mmHg 41%
    12:00 +26°C° 0 mm 3 mps 750 mmHg 38%
    13:00 +27°C° 0 mm 3 mps 750 mmHg 36%
    14:00 +28°C° 0 mm 3 mps 749 mmHg 34%
    15:00 +28°C° 0 mm 2 mps 749 mmHg 35%
    16:00 +28°C° 0 mm 2 mps 749 mmHg 36%
    17:00 +28°C° 0 mm 2 mps 748 mmHg 37%
    18:00 +26°C° 0 mm 2 mps 748 mmHg 47%
    19:00 +24°C° 0 mm 2 mps 748 mmHg 57%
    20:00 +21°C° 0 mm 2 mps 748 mmHg 66%
    21:00 +20°C° 0 mm 2 mps 748 mmHg 70%
    22:00 +20°C° 0 mm 2 mps 748 mmHg 73%
    23:00 +19°C° 0 mm 2 mps 748 mmHg 77%

    28 June, Wednesday

    Time Temperature Precipitation Wind Pressure Humidity
    00:00 +19°C° 0 mm 2 mps 747 mmHg 81%
    01:00 +19°C° 0 mm 2 mps 747 mmHg 85%
    02:00 +19°C° 0 mm 2 mps 747 mmHg 89%
    03:00 +19°C° 0 mm 2 mps 746 mmHg 89%
    04:00 +19°C° 0 mm 2 mps 746 mmHg 89%
    05:00 +19°C° 0 mm 3 mps 746 mmHg 89%
    06:00 +20°C° 0 mm 3 mps 745 mmHg 83%
    07:00 +22°C° 0 mm 3 mps 745 mmHg 77%
    08:00 +24°C° 0 mm 3 mps 745 mmHg 70%
    09:00 +27°C° 0 mm 3 mps 745 mmHg 63%
    10:00 +29°C° 0 mm 4 mps 744 mmHg 55%
    11:00 +32°C° 0 mm 4 mps 744 mmHg 47%
    12:00 +33°C° 0.1 mm 4 mps 744 mmHg 45%
    13:00 +34°C° 0.1 mm 4 mps 743 mmHg 44%
    14:00 +34°C° 0.1 mm 4 mps 743 mmHg 42%
    15:00 +34°C° 0 mm 4 mps 743 mmHg 42%
    16:00 +35°C° 0 mm 4 mps 742 mmHg 42%
    17:00 +35°C° 0 mm 3 mps 742 mmHg 42%
    18:00 +33°C° 0 mm 3 mps 742 mmHg 50%
    19:00 +30°C° 0 mm 3 mps 742 mmHg 58%
    20:00 +28°C° 0 mm 3 mps 741 mmHg 66%
    21:00 +27°C° 0 mm 3 mps 741 mmHg 68%
    22:00 +27°C° 0 mm 3 mps 741 mmHg 70%
    23:00 +26°C° 0 mm 3 mps 741 mmHg 73%
    Show more